User: anonymous   Login
Location: Newark
(58.8333°N, 23.5833°E)
Time: 00:19:56
(UTC+00:00)
Language:

METEOR M2 - Orbit

View from above orbital plane
View from above orbital plane
View from above satellite
View from above satellite

Ground track
Ground track

The orbit data is extracted from the following two-line orbital elements,

1 40069U 14037A   19339.80657244 -.00000034  00000-0  39563-5 0  9994
2 40069  98.5301  19.4337 0006516 120.9693 239.2117 14.20667445280578
Epoch (UTC): 05 December 2019 19:21:27
Eccentricity: 0.0006516
inclination: 98.5301°
perigee height: 818 km
apogee height: 828 km
right ascension of ascending node: 19.4337°
argument of perigee: 120.9693°
revolutions per day: 14.20667445
mean anomaly at epoch: 239.2117°
orbit number at epoch: 28057

The dashed part of the orbit path shows where the satellite is in the earth's shadow,  

DLR